STARLINK-11179, 60190

Orbit data source: Space-Track

STARLINK-11179, 60190 is a payload satellite owned by SpaceX/Seattle (US) in LEO that was launched on Wed, 03 Jul 2024 UTC via an FALCON 9 launch vehicle from the Air Force Eastern Test Range (AFETR). Payloads include a variety of satellites, spacecraft, and rockets equipped with specific instruments for various scientific and technological missions. These include communications satellites like Starlink; space stations such as the ISS; scientific satellites like the Hubble; Earth observation satellites from companies like Planet Labs, Umbra, and HawkEye 360; GPS; miniature CubeSats for education and research; and military/defense satellites.

Loading next visibility...
STARLINK-11179 details
Identifier
60190, 2024-124H
Orbit
LEO
Last TLE update17 hours ago
Origin
Flag of USSpaceX/Seattle (US)
ManufacturerSpaceX/Seattle
MissionOperational Commercial Communications
Bus & MotorSTARLINK V2M, Unknown motor
Mass730 kg wet, ~700 kg dry
Launch date (UTC)
2024-07-03 (7 months ago)
Launch vehicle
FALCON 9
Launch site
Air Force Eastern Test Range (AFETR)
Object type
Payload
Rocket body
Debris
Shape & HBRBox + 2 Pan, 29 m
Radar Cross Section36.964 m², Large (>1 m²)

Expand to show TLE details & history

TLE from 17 hours ago
0 STARLINK-11179
1 60190U 24124H   25043.92559740 -.00000044  00000-0  44981-5 0  9994
2 60190  53.1585 282.9109 0001129  91.4693 268.6454 15.69715019 35312
Epoch: 2025-02-12T22:12Z
Definitive object data (Epoch: 2025-02-12T22:12:51.615Z)
Latitude-0.00003°
Longitude166.48674°
Altitude360.645 km
Speed7.694 km/s
True Right ascension18h 51m 38s
True Declination0° 00' 00"
Sunlit
Object was in daylight at TLE epoch
Visualization TLE readout
Latitude0.78111°
Longitude163.61426°
Altitude360.563 km
Speed7.694 km/s
Apparent Right ascension20h 53m 56s
Apparent Declination-58° 36' 55"
Sunlit
Object is in daylight
Visualization observer readout
Local Sidereal Time17:36:44
Azimuth155.658° SSE
Elevation-16.696°
Doppler factor1
Orbital elements
Apogee altitude360.734 km
Perigee altitude359.213 km
Semi-major axis6,738.11 km
Eccentricity0.0001129
Inclination53.1585°
RAAN282.9109°
Arg. of periapsis91.4693°
True anomaly268.63247°
Mean anomaly268.6454°
Eccentric anomaly268.63893°
Mean motion3.92406 °/min
BSTAR0.0000044981
Orbital period91.74 mins
Loading maneuver chart data...
Loading historical data...
Loading historical data...
Loading historical data...
Loading historical data...
Loading historical data...
Loading historical data...
Loading historical data...

STARLINK-11179 Visibility forecast

Observer location: undefined°, undefined

Span
Click to sort rows by Start time (UTC) header in descending order
Start Az.
Max El. time (UTC)
Max El. Az.
Max El.
End time (UTC)
End Az.
4 mins2025-02-13 18:15:37.416Z211.755° SW2025-02-13 18:17:37.416Z141.604° SSE39.553°2025-02-13 18:19:37.416Z62.507° ENE
4 mins2025-02-14 00:40:37.416Z335.935° NNW2025-02-14 00:42:37.416Z49.705° ENE29.67°2025-02-14 00:44:37.416Z99.841° ESE
|